Palma de Mallorca, Spain

5:04 AM CET on December 03, 2016 (GMT +0100)
Palma de Mallorca

Weather History for 08306 - April, 2013

Change the Weather History Date:

Wednesday, April 3, 2013

  Actual Average Record
Temperature  
Mean Temperature 55 °F -  
Max Temperature 70 °F - - ()
Min Temperature 40 °F - - ()
Degree Days  
Heating Degree Days 10    
Growing Degree Days 5 (Base 50)    
Moisture  
Dew Point 45 °F    
Average Humidity 67    
Maximum Humidity 94    
Minimum Humidity 25    
Precipitation  
Precipitation 0.00 in - - ()
Sea Level Pressure  
Sea Level Pressure 29.72 in    
Wind  
Wind Speed 3 mph ()    
Max Wind Speed 12 mph    
Max Gust Speed -    
Visibility 7.9 miles    
Events      
T = Trace of Precipitation, MM = Missing Value Source: Averaged Metar Reports

Daily Weather History Graph

Daily Weather History Graph

Search for Another Location

Airport or City:

Trip Planner

Search our weather history database for the weather conditions in past years. The results will help you decide how hot, cold, wet, or windy it might be!

Date:

Astronomy

Apr. 03, 2013 Rise Set
Actual Time 7:30 AM CEST 8:15 PM CEST
Civil Twilight 7:02 AM CEST 8:42 PM CEST
Nautical Twilight 6:30 AM CEST 9:14 PM CEST
Astronomical Twilight 5:57 AM CEST 9:47 PM CEST
Moon 2:56 AM CEST 1:11 PM CEST
Length of Visible Light 13h 39m
Length of Day
12h 44m
Waning Gibbous, 47% of the Moon is Illuminated
Apr 3
Waning Gibbous
Apr 10
New
Apr 18
First Quarter
Apr 25
Full
May 2
Last Quarter

Hourly Weather History & Observations

Time (CEST) Temp. Windchill Dew Point Humidity Pressure Visibility Wind Dir Wind Speed Gust Speed Precip Events Conditions
12:00 AM 50.0 °F - 46.4 °F 87% 29.80 in - Calm Calm - N/A   Clear
12:30 AM 50.0 °F - 46.4 °F 87% 29.80 in - South 3.5 mph - N/A   Clear
1:00 AM 48.2 °F - 44.6 °F 87% 29.80 in - South 6.9 mph - N/A   Clear
1:30 AM 50.0 °F - 48.2 °F 94% 29.80 in - SW 9.2 mph - N/A   Clear
2:00 AM 47 °F - 44 °F 86% 29.82 in 16 mi Calm Calm - -  
2:00 AM 50.0 °F - 46.4 °F 87% 29.80 in - West 1.2 mph - N/A   Clear
2:30 AM 48.2 °F - 46.4 °F 93% 29.80 in - SSE 1.2 mph - N/A   Clear
3:00 AM 48.2 °F - 46.4 °F 93% 29.80 in - Variable 1.2 mph - N/A   Clear
3:30 AM 50.0 °F - 48.2 °F 94% 29.80 in - East 1.2 mph - N/A   Clear
4:00 AM 46.4 °F - 44.6 °F 93% 29.80 in - Variable 2.3 mph - N/A   Clear
4:30 AM 46.4 °F - 44.6 °F 93% 29.80 in - Calm Calm - N/A   Clear
5:00 AM 46.4 °F - 44.6 °F 93% 29.80 in - Variable 1.2 mph - N/A   Clear
5:30 AM 44.6 °F - 42.8 °F 93% 29.77 in - Variable 2.3 mph - N/A   Clear
6:00 AM 42.8 °F 40.1 °F 41.0 °F 93% 29.77 in - NE 4.6 mph - N/A   Clear
6:30 AM 46.4 °F - 42.8 °F 87% 29.77 in - Calm Calm - N/A   Clear
7:00 AM 42.8 °F - 39.2 °F 87% 29.77 in - Calm Calm - N/A   Clear
7:30 AM 42.8 °F - 39.2 °F 87% 29.77 in - Calm Calm - N/A   Clear
8:00 AM 42 °F - 40 °F 89% 29.79 in 47 mi East 3.5 mph - -   Clear
8:00 AM 42.8 °F 41.1 °F 41.0 °F 93% 29.77 in - East 3.5 mph - N/A   Clear
8:30 AM 46.4 °F - 42.8 °F 87% 29.77 in - Calm Calm - N/A   Clear
9:00 AM 50.0 °F - 46.4 °F 87% 29.77 in - Calm Calm - N/A   Clear
9:30 AM 55.4 °F - 50.0 °F 82% 29.77 in - Calm Calm - N/A   Clear
10:00 AM 60.8 °F - 53.6 °F 77% 29.77 in - Calm Calm - N/A   Clear
10:30 AM 60.8 °F - 51.8 °F 72% 29.77 in - Calm Calm - N/A   Clear
11:00 AM 62.6 °F - 48.2 °F 59% 29.77 in - West 1.2 mph - N/A   Clear
11:30 AM 66.2 °F - 48.2 °F 52% 29.77 in - WSW 1.2 mph - N/A   Clear
12:00 PM 66.2 °F - 44.6 °F 46% 29.77 in 6.2 mi WSW 8.1 mph - N/A   Partly Cloudy
12:30 PM 66.2 °F - 48.2 °F 52% 29.74 in 6.2 mi SW 8.1 mph - N/A   Partly Cloudy
1:00 PM 66.2 °F - 50.0 °F 56% 29.74 in 6.2 mi SW 9.2 mph - N/A   Partly Cloudy
1:30 PM 66.2 °F - 50.0 °F 56% 29.74 in 6.2 mi SW 6.9 mph - N/A   Partly Cloudy
2:00 PM 69 °F - 41 °F 25% 29.72 in 19 mi SW 2.3 mph - -   Scattered Clouds
2:00 PM 68.0 °F - 46.4 °F 46% 29.71 in 6.2 mi SSE 9.2 mph - N/A   Partly Cloudy
2:30 PM 69.8 °F - 41.0 °F 35% 29.71 in 6.2 mi South 11.5 mph - N/A   Partly Cloudy
3:00 PM 69.8 °F - 44.6 °F 40% 29.68 in - South 11.5 mph - N/A   Clear
3:30 PM 68.0 °F - 42.8 °F 40% 29.68 in 6.2 mi South 10.4 mph - N/A   Partly Cloudy
4:00 PM 68.0 °F - 41.0 °F 37% 29.65 in 6.2 mi South 9.2 mph - N/A   Partly Cloudy
4:30 PM 69.8 °F - 39.2 °F 33% 29.65 in - SSE 9.2 mph - N/A   Clear
5:00 PM 69.8 °F - 39.2 °F 33% 29.65 in - South 10.4 mph - N/A   Clear
5:30 PM 66.2 °F - 37.4 °F 35% 29.65 in - South 9.2 mph - N/A   Clear
6:00 PM 68.0 °F - 37.4 °F 33% 29.62 in - SSE 9.2 mph - N/A   Clear
6:30 PM 66.2 °F - 37.4 °F 35% 29.62 in - SSE 9.2 mph - N/A   Clear
7:00 PM 66.2 °F - 41.0 °F 40% 29.59 in - SSE 5.8 mph - N/A   Clear
7:30 PM 64.4 °F - 42.8 °F 45% 29.59 in - SE 6.9 mph - N/A   Clear
8:00 PM 62 °F - 41 °F 34% 29.61 in 16 mi ESE 6.9 mph - -   Scattered Clouds
8:00 PM 62.6 °F - 44.6 °F 52% 29.59 in 6.2 mi ESE 6.9 mph - N/A   Partly Cloudy
8:30 PM 60.8 °F - 46.4 °F 59% 29.59 in 6.2 mi East 4.6 mph - N/A   Partly Cloudy
9:00 PM 59.0 °F - 48.2 °F 67% 29.59 in 6.2 mi East 6.9 mph - N/A   Partly Cloudy
9:30 PM 59.0 °F - 50.0 °F 72% 29.62 in 6.2 mi Variable 2.3 mph - N/A   Partly Cloudy
10:00 PM 57.2 °F - 50.0 °F 77% 29.62 in 6.2 mi ENE 8.1 mph - N/A   Partly Cloudy
10:30 PM 59.0 °F - 50.0 °F 72% 29.62 in 6.2 mi Variable 2.3 mph - N/A   Partly Cloudy
11:00 PM 59.0 °F - 50.0 °F 72% 29.62 in 6.2 mi Variable 2.3 mph - N/A   Partly Cloudy
11:30 PM 57.2 °F - 50.0 °F 77% 29.62 in 6.2 mi ENE 6.9 mph - N/A   Partly Cloudy